STARLINK-2444

Last updated on Sat May 08 2021 00:02:04 GMT+0000 (Coordinated Universal Time)

1 48108U 21027S 21127.58334491 .00032057 00000-0 23162-3 0 9997 2 48108 53.0472 191.7472 0003103 17.5569 284.8432 15.73226527 1771
UTC large
Height (km)
Speed (km/s)
/
Latitude / Longitude
Inclination (degrees)
Orbital Period (minutes)
Azimuth
Elevation
Range (km)
Doppler Factor

Next 0 passes for location: London (51.5072 / 0.1276)

Sorry there are no passes over London.